Regional Weather Roundup
Issued by NWS

Home | Current Version | Previous Version | Graphics & Text | Print | Product List | Glossary On
Versions: 1 2 3 4 5 6 7 8 9 10 11 12 13 14 15 16 17 18 19 20 21 22 23 24 25 26 27 28 29 30 31 32 33 34 35 36 37 38 39 40 41 42 43 44 45 46 47 48 49 50
506
ASUS43 KMPX 280810
RWRMN
WEATHER ROUNDUP FOR MINNESOTA
NATIONAL WEATHER SERVICE TWIN CITIES/CHANHASSEN MN
300 AM CDT SAT MAY 28 2016


NOTE: "FAIR" INDICATES FEW OR NO CLOUDS BELOW 12,000 FEET WITH NO
SIGNIFICANT WEATHER AND/OR OBSTRUCTIONS TO VISIBILITY. N/A MEANS
CURRENT SKY AND/OR WEATHER CONDITIONS ARE NOT AVAILABLE.

MNZ060>063-068>070-280900-
   Twin Cities Metro

CITY           SKY/WX    TMP DP  RH WIND       PRES   REMARKS
TWIN CITIES    CLOUDY    62  59  90 N3        29.74F
ST PAUL        CLOUDY    62  60  93 NW3       29.75S
CRYSTAL        CLOUDY    60  58  92 N5        29.74S FOG
BLAINE         CLOUDY    61  61 100 N5        29.75F FOG
EDEN PRAIRIE   CLOUDY    62  59  90 N5        29.74R FOG
SOUTH ST PAUL  CLOUDY    63  60  90 CALM      29.74S
LAKE ELMO      MOCLDY    61  61 100 CALM      29.76S FOG
$$
MNZ001>005-007-008-013>017-022>024-027-028-280900-
   Northwest Minnesota

CITY           SKY/WX    TMP DP  RH WIND       PRES   REMARKS
BEMIDJI        CLOUDY    56  54  92 CALM      29.82F
HALLOCK        CLOUDY    63  57  82 E6        29.83S
ROSEAU         PTCLDY    57  52  82 E8        29.85S
WARROAD        PTCLDY    57  54  88 CALM      29.86S
THIEF RVR FALL CLOUDY    57  54  88 E3        29.85S
CROOKSTON      CLOUDY    59  57  94 SE6       29.84R
FOSSTON        CLOUDY    54  52  94 CALM      29.83F
DETROIT LAKES  CLOUDY    57  54  88 E3        29.83S
MOORHEAD       PTCLDY    59  57  94 CALM      29.81S
PARK RAPIDS    CLOUDY    59  54  83 N5        29.82R
MAHNOMEN       FAIR      55  53  95 E5        29.82S
$$
MNZ006-009>011-018-025>026-280900-
   North Central Minnesota

CITY           SKY/WX    TMP DP  RH WIND       PRES   REMARKS
BAUDETTE       CLOUDY    59  53  80 NE7       29.84S
FLAG ISLAND    CLOUDY    61  55  82 NE9       29.85S
INTL FALLS     CLOUDY    61  54  77 E5        29.83F
WASKISH        CLOUDY    57  54  88 E3        29.83S
BIG FORK       RAIN      57  54  88 E5        29.84S
LONGVILLE      LGT RAIN  55  54  94 CALM      29.82S
GRAND RAPIDS   CLOUDY    55  54  96 NW5       29.83S FOG
CRANE LAKE     LGT RAIN  55  54  94 N5        29.85F
ORR            DRIZZLE   55  52  88 CALM      29.82F
COOK           RAIN      55  54  94 N3        29.82F
WALKER         CLOUDY    57  55  90 NE3       29.82R
$$
MNZ012-019>021-037-280900-
   Northeast Minnesota

CITY           SKY/WX    TMP DP  RH WIND       PRES   REMARKS
DULUTH         DRZL/FOG  52  51  97 E8        29.78S VSB 1
ELY            HVY RAIN  55  54  94 NE6       29.80F
HIBBING        CLOUDY    54  53  97 N6        29.80F FOG
EVELETH        CLOUDY    54  54 100 N6        29.80F FOG
DULUTH HARBOR  CLOUDY    46  45  93 NE12      29.80R FOG
TWO HARBORS    LGT RAIN  55  52  88 NE8       29.76S
SILVER BAY     DRIZZLE   55  55 100 NE13G23   29.76F
GRAND MARAIS     N/A     56  55  97 E10       29.78F
G MARAIS ARPRT LGT RAIN  55  52  88 NE8       29.82F
$$
MNZ029>031-032-039>041-046>048-054>057-064-280900-
   West Central Minnesota

CITY           SKY/WX    TMP DP  RH WIND       PRES   REMARKS
FERGUS FALLS   CLOUDY    59  57  94 NE5       29.77F
WHEATON        CLOUDY    61  57  88 NE5       29.79F
MORRIS         CLOUDY    61  57  88 NE5       29.77S
ALEXANDRIA     CLOUDY    59  55  87 NE3       29.81S
ELBOW LAKE     CLOUDY    58  56  91 NE7       29.79F
WADENA         CLOUDY    55  54  94 NE5       29.81S
GLENWOOD       MOCLDY    55  55 100 N5        29.80R
APPLETON       CLOUDY    61  55  82 NE5       29.77S
BENSON         PTCLDY    57  55  94 E1        29.78S
ORTONVILLE     CLOUDY    61  57  88 E5        29.77S
MADISON        CLOUDY    63  57  82 E3        29.77S
WILLMAR        CLOUDY    61  59  94 NE6       29.78F
$$
MNZ033>034-036-042>043-049>051-058-059-280900-
   Central Minnesota

CITY           SKY/WX    TMP DP  RH WIND       PRES   REMARKS
ST CLOUD       CLOUDY    57  56  96 N5        29.76F
SAUK CENTRE    CLOUDY    58  56  91 CALM      29.79S
PAYNESVILLE    CLOUDY    59  59 100 N3        29.77F
AITKIN         CLOUDY    57  54  88 N5        29.79S
PINE RIVER     RAIN      57  55  94 N3        29.85R
BRAINERD       CLOUDY    56  54  93 N6        29.81R
STAPLES        CLOUDY    55  54  94 CALM      29.81S
LONG PRAIRIE   CLOUDY    55  54  94 NW5       29.80S
LITTLE FALLS   CLOUDY    55  54  94 CALM      29.79S
LITCHFIELD     CLOUDY    61  61 100 CALM      29.77S FOG
BUFFALO        CLOUDY    59  57  93 NW5       29.77S FOG
MAPLE LAKE     CLOUDY    59  59  98 N5        29.77F FOG
HUTCHINSON     CLOUDY    60  59  99 CALM      29.76F FOG
$$
MNZ037-044-045-052-053-280900-
   East Central Minnesota

CITY           SKY/WX    TMP DP  RH WIND       PRES   REMARKS
PRINCETON        N/A     57  55  94 N5        29.77F
MORA           CLOUDY    54  52  94 N5        29.78F FOG
CAMBRIDGE      CLOUDY    59  52  77 CALM      29.75F
RUSH CITY      CLOUDY    56  55  94 N3        29.76F
MOOSE LAKE     FOG       50  48  93 NE5       29.77F VSB 1
HINCKLEY       CLOUDY    54  54 100 N3        29.77F FOG
CLOQUET        DRIZZLE   52  48  87 E3        29.79S
MCGREGOR       CLOUDY    55  54  94 N6        29.80S
$$
MNZ071>073-080-081-089-090-097-098-280900-
   Southwest Minnesota

CITY           SKY/WX    TMP DP  RH WIND       PRES   REMARKS
MONTEVIDEO     CLOUDY    59  57  94 SE3       29.78F
GRANITE FALLS  MOCLDY    61  59  91 CALM      29.77F
CANBY          CLOUDY    65  61  88 E7        29.78S
MARSHALL       CLOUDY    62  59  90 NE8       29.76F
REDWOOD FALLS  CLOUDY    60  57  89 N6        29.74F
OLIVIA         PTCLDY    55  54  94 N5        29.75F FOG
PIPESTONE      CLOUDY    63  59  88 NE8       29.74F
WINDOM         MOCLDY    64  61  88 E8        29.73F
WORTHINGTON    TSTM      64  60  87 S22       29.73F
JACKSON        CLOUDY    64  61  88 SE3       29.74F
TRACY          CLOUDY    62  62  98 NE7       29.75F FOG
SLAYTON        CLOUDY    60  60 100 N7        29.75F
$$
MNZ065>067-074>077-082>085-091>093-280900-
   South Central Minnesota

CITY           SKY/WX    TMP DP  RH WIND       PRES   REMARKS
MANKATO        CLOUDY    63  59  88 NE6       29.75F
NEW ULM        CLOUDY    61  61 100 NE15      29.74F
ST JAMES       CLOUDY    57  57 100 NE7       29.75F
FAIRMONT       CLOUDY    64  61  88 SE3       29.73F
GLENCOE        CLOUDY    61  61 100 N5        29.75F FOG
FARIBAULT      CLOUDY    61  61 100 CALM      29.76S
OWATONNA       CLOUDY    61  61 100 CALM      29.76S FOG
WASECA         CLOUDY    61  59  94 CALM      29.77S FOG
ALBERT LEA     CLOUDY    64  63  94 CALM      29.75F
$$
MNZ078>079-086>088-094>096-280900-
   Southeast Minnesota

CITY           SKY/WX    TMP DP  RH WIND       PRES   REMARKS
ROCHESTER      CLOUDY    61  61 100 NW6       29.76F FOG
RED WING       FOG       63  61  94 CALM      29.74S VSB 1/2
STANTON        FOG       61  59  94 CALM      29.74S VSB 1/4
DODGE CENTER   FOG       61  59  94 CALM      29.76F VSB 3/4
WINONA         CLOUDY    66  64  94 CALM      29.75R FOG
AUSTIN         LGT RAIN  63  61  94 CALM      29.75F
PRESTON        CLOUDY    62  61  96 CALM      29.75S
$$
ABBREVIATIONS USED IN REMARKS
   TC - TEMPERATURES IN CELSIUS
  WCI - WIND CHILL INDEX
   HX - HEAT INDEX
  VSB - VISIBILITY
$$




USA.gov is the U.S. government's official web portal to all federal, state and local government web resources and services.